Skip Navigation Links weather.gov 
NOAA logo-Select to go to the NOAA homepage NDBC Title GraphicClick to go to NDBC home page   Select to go to the NWS homepage
Home About Us Contact Us
 
 
    
    Station List

 Data Access
    Mobile Access
    Classic Maps
         Recent
         DART®
    Obs Search
    Ship Obs Report
    BuoyCAMs
    TAO
    DODS
    OceanSITES
    HF Radar
    OSMC
    Dial-A-Buoy
    RSS Feeds Image indicating link to RSS feed access page
    Web Widget
    Web Data Guide
    Maintenance Schedule
    Station Status Report

 Program Info
    TAO
    DART®
    IOOS®

 Publications
    NDBC PEA
    NDBC FONSI
    NDBC DQC Handbook

 Visitor Information
 
USA.gov is the U.S. government's official web portal to all federal, state and local government web resources and services.

Station FMOA1 - 8734673 - Fort Morgan, AL Image indicating link to RSS feed of recent meteorological observations for station FMOA1

Owned and maintained by NOAA's National Ocean Service
C-MAN Station
30.228 N 88.024 W (30°13'42" N 88°1'27" W)

Site elevation: 2 m above mean sea level
Air temp height: 17.5 m above site elevation
Anemometer height: 36.2 m above site elevation
Barometer elevation: 31 m above mean sea level

Search And Rescue (SAR) Data

Meteorological Observations from Nearby Stations and Ships Image indicating link to RSS feed of recent meteorological observations near station FMOA1

Regional HF Radar Surface Current Observations

Large icon indicates selected station.
yellow diamond Stations with recent data
red diamond Stations with no data in last 8 hours
     (24 hours for tsunami stations)


Conditions at FMOA1 as of
(7:18 am CDT)
1218 GMT on 04/19/2019:
     

Click on the graph icon in the table below to see a time series plot of the last five days of that observation.

5-day plot - Wind Direction Wind Direction (WDIR): WNW ( 300 deg true )
5-day plot - Wind Speed Wind Speed (WSPD): 24 kts
5-day plot - Wind Gust Wind Gust (GST): 28 kts
5-day plot - Atmospheric Pressure Atmospheric Pressure (PRES): 29.64 in
5-day plot - Air Temperature Air Temperature (ATMP): 61.9 °F
5-day plot - Wind Speed at 10 Meters Wind Speed at 10 meters (WSPD10M): 19 kts
5-day plot - Wind Speed at 10 Meters Wind Speed at 20 meters (WSPD20M): 21 kts
5-day plot - Wind Speed, Wind Gust and Atmospheric Pressure Combined plot of Wind Speed, Gust, and Air Pressure
NOS Water Level Observation Network Water Level
Previous observations
5-day plot - Wind Direction 5-day plot - Wind Speed 5-day plot - Wind Gust 5-day plot - Wave Height 5-day plot - Dominant Wave Period 5-day plot - Average Period 5-day plot - Mean Wave Direction 5-day plot - Atmospheric Pressure 5-day plot - Pressure Tendency 5-day plot - Air Temperature 5-day plot - Water Temperature 5-day plot - Dew Point 5-day plot - Salinity 5-day plot - Visibility 5-day plot - Tide (above MLLW)
MM DD TIME
(CDT)
WDIR WSPD
kts
GST
kts
WVHT
ft
DPD
sec
APD
sec
MWD PRES
in
PTDY
in
ATMP
°F
WTMP
°F
DEWP
°F
SAL
psu
VIS
nmi
TIDE
ft
0419 7:12 amWNW 27 31----29.64- 62.2-----
0419 7:06 amWNW 26 30----29.63- 62.6-----
0419 7:00 amWNW 21 25----29.63+0.01 63.7-----
0419 6:54 amWNW 22 27----29.63- 64.2-----
0419 6:48 amWNW 21 23----29.62- 65.1-----
0419 6:42 amWNW 17 20----29.62- 65.8-----
0419 6:36 amWNW 15 17----29.62- 65.8-----
0419 6:30 amWNW 16 18----29.62- 66.2-----
0419 6:24 amWNW 17 19----29.61- 66.0-----
0419 6:18 amWNW 15 18----29.62- 66.4-----
0419 6:12 amWNW 14 17----29.62- 66.2-----
0419 6:06 amWNW 18 20----29.62- 66.2-----
0419 6:00 amWNW 17 20----29.62+0.00 66.0-----
0419 5:54 amWNW 19 22----29.62- 66.2-----
0419 5:48 amWNW 20 22----29.61- 66.0-----
0419 5:36 amWNW 16 20----29.62- 66.2-----
0419 5:30 amWNW 17 19----29.62- 66.4-----
0419 5:24 amWNW 18 21----29.62- 66.4-----
0419 5:18 am NW 17 20----29.62- 66.0-----
0419 5:12 am NW 16 18----29.63- 65.8-----
0419 5:06 amWNW 20 23----29.63- 66.0-----
0419 5:00 amWNW 21 26----29.62+0.02 65.8-----
0419 4:54 amWNW 20 23----29.62- 66.2-----
0419 4:48 amWNW 19 22----29.62- 66.4-----
0419 4:42 amWNW 17 20----29.62- 66.6-----
0419 4:36 amWNW 19 22----29.62- 66.6-----
0419 4:24 amWNW 17 20----29.62- 66.6-----
0419 4:18 amWNW 15 18----29.62- 66.6-----
0419 4:12 amWNW 14 16----29.62- 66.9-----
0419 4:06 amWNW 16 19----29.62- 66.9-----
0419 4:00 amWNW 17 20----29.62+0.00 66.9-----
0419 3:54 am NW 21 23----29.61- 66.9-----
0419 3:48 amWNW 21 24----29.61- 66.7-----
0419 3:42 amWNW 21 25----29.61- 66.7-----
0419 3:36 am NW 23 26----29.61- 67.1-----
0419 3:30 amWNW 21 24----29.61- 66.9-----
0419 3:24 amWNW 21 25----29.61- 67.1-----
0419 3:12 am NW 24 27----29.61- 67.3-----
0419 3:06 am NW 24 28----29.61- 67.3-----
0419 3:00 am NW 22 25----29.61-0.04 67.3-----
0419 2:54 amWNW 21 24----29.62- 67.5-----
0419 2:48 am NW 22 24----29.62- 67.6-----
0419 2:42 am NW 21 25----29.62- 67.8-----
0419 2:36 amWNW 24 27----29.62- 68.0-----
0419 2:30 am NW 24 27----29.62- 68.2-----
0419 2:24 amWNW 23 26----29.61- 68.0-----
0419 2:18 amWNW 21 24----29.61- 68.4-----
0419 2:12 am NW 20 23----29.61- 68.9-----
0419 2:06 am NW 22 25----29.60- 68.7-----
0419 2:00 am NW 22 25----29.60-0.08 69.1-----
0419 1:54 am NW 23 25----29.60- 69.4-----
0419 1:48 amWNW 22 26----29.60- 70.0-----
0419 1:42 am NW 23 26----29.60- 70.3-----
0419 1:36 amWNW 21 25----29.61- 71.2-----
0419 1:30 am W 21 24----29.61- 71.4-----
0419 1:24 am W 23 27----29.61- 71.2-----
0419 1:18 am W 22 27----29.62- 71.2-----
0419 1:12 amWSW 23 26----29.61- 70.9-----
0419 1:06 amWSW 21 26----29.62- 70.7-----
0419 1:00 amWSW 23 26----29.62-0.06 70.5-----
041912:54 amWSW 24 27----29.63- 70.5-----
041912:48 amWSW 22 26----29.63- 70.2-----
041912:42 amWSW 22 26----29.63- 70.3-----
041912:36 amWSW 23 27----29.63- 70.0-----
041912:30 am W 25 30----29.63- 69.8-----
041912:24 amWSW 24 31----29.65- 71.1-----
041912:18 amWSW 20 23----29.64- 71.2-----
041912:12 amWSW 21 25----29.65- 71.2-----
041912:06 amWSW 25 29----29.65- 71.2-----
041912:00 amWSW 28 32----29.65+0.02 71.2-----
041811:54 pm W 27 30----29.65- 70.5-----
041811:48 pmWSW 28 32----29.65- 71.2-----
041811:42 pmWSW 24 30----29.66- 71.8-----
041811:36 pm SW 27 34----29.65- 71.6-----
041811:30 pmWSW 23 29----29.65- 71.6-----
041811:24 pm SW 32 39----29.65- 72.1-----
041811:18 pm SW 37 44----29.66- 72.9-----
041811:12 pmWSW 23 26----29.67- 72.9-----
041811:06 pmWSW 21 24----29.67- 73.0-----
041811:00 pmWSW 24 27----29.68-0.02 73.4-----
041810:54 pm SW 24 27----29.68- 73.8-----
041810:48 pm SW 24 27----29.68- 73.8-----
041810:42 pm SW 22 27----29.69- 73.6-----
041810:36 pm SW 21 23----29.69- 73.8-----
041810:30 pm SW 24 28----29.69- 74.1-----
041810:24 pm SW 26 30----29.69- 74.1-----
041810:18 pm SW 26 31----29.69- 74.1-----
041810:12 pm SW 26 29----29.69- 73.9-----
041810:06 pm SW 24 28----29.69- 74.1-----
041810:00 pm SW 24 29----29.68-0.05 74.5-----
0418 9:54 pmSSW 24 28----29.66- 74.7-----
0418 9:48 pm S 27 31----29.65- 75.0-----
0418 9:42 pm S 30 36----29.65- 75.6-----
0418 9:36 pm S 29 36----29.64- 74.8-----
0418 9:30 pm S 28 34----29.64- 74.8-----
0418 9:24 pm S 31 38----29.63- 75.2-----
0418 9:18 pm S 34 40----29.64- 75.4-----
0418 9:12 pm S 30 34----29.64- 75.4-----
0418 9:06 pm S 23 28----29.63- 73.8-----
0418 9:00 pm S 24 31----29.63-0.08 73.4-----
0418 8:54 pm S 26 31----29.62- 73.2-----
0418 8:48 pm S 33 38----29.62- 73.0-----
0418 8:42 pm S 37 42----29.62- 73.0-----
0418 8:36 pm S 37 43----29.61- 73.4-----
0418 8:30 pm S 45 53----29.56- 73.9-----
0418 8:24 pm S 41 56----29.56- 72.5-----
0418 8:18 pmSSE 41 46----29.59- 70.7-----
0418 8:12 pmSSE 36 42----29.61- 69.8-----
0418 8:06 pm S 34 38----29.67- 68.5-----
0418 8:00 pmSSW 36 44----29.70-0.03 66.4-----
0418 7:54 pmSSW 43 51----29.73- 68.4-----
0418 7:48 pm S 30 34----29.71- 69.1-----
0418 7:42 pmSSW 31 37----29.72- 68.7-----
0418 7:36 pmSSW 30 40----29.74- 72.3-----
0418 7:30 pm S 19 22----29.72- 73.0-----
0418 7:18 pm S 23 26----29.72- 73.0-----
0418 7:12 pm S 24 28----29.72- 73.0-----
0418 7:06 pm S 22 25----29.73- 73.0-----
0418 7:00 pm S 23 25----29.73-0.01 72.9-----
0418 6:54 pm S 22 25----29.73- 73.0-----
0418 6:48 pm S 22 25----29.73- 72.9-----
0418 6:42 pm S 22 25----29.73- 72.9-----
0418 6:36 pm S 22 26----29.72- 72.9-----
0418 6:30 pm S 22 25----29.72- 72.9-----
0418 6:24 pm S 22 25----29.72- 72.7-----
0418 6:18 pmSSE 23 27----29.71- 72.7-----
0418 6:12 pmSSE 22 26----29.71- 72.7-----
0418 6:06 pmSSE 22 25----29.71- 72.5-----
0418 6:00 pmSSE 23 27----29.71-0.05 72.7-----
0418 5:54 pmSSE 22 26----29.71- 72.7-----
0418 5:48 pmSSE 22 25----29.72- 72.5-----
0418 5:42 pmSSE 21 24----29.72- 72.7-----
0418 5:36 pmSSE 22 25----29.72- 72.5-----
0418 5:30 pmSSE 23 25----29.72- 72.7-----
0418 5:24 pmSSE 23 26----29.72- 72.7-----
0418 5:18 pmSSE 23 26----29.72- 72.7-----
0418 5:12 pm SE 23 26----29.72- 72.7-----
0418 5:06 pm SE 21 25----29.73- 72.5-----
0418 5:00 pm SE 21 25----29.73-0.07 72.5-----
0418 4:54 pm SE 22 25----29.73- 72.5-----
0418 4:48 pm SE 21 24----29.73- 72.5-----
0418 4:42 pm SE 22 24----29.73- 72.3-----
0418 4:36 pm SE 24 27----29.73- 72.5-----
0418 4:30 pm SE 22 25----29.73- 72.7-----
0418 4:24 pm SE 23 27----29.73- 72.7-----
0418 4:18 pm SE 23 26----29.74- 72.9-----
0418 4:12 pm SE 23 27----29.74- 72.7-----
0418 4:06 pm SE 22 25----29.74- 72.5-----
0418 4:00 pm SE 23 25----29.74-0.10 72.3-----
0418 3:54 pm SE 22 26----29.75- 72.7-----
0418 3:48 pm SE 22 26----29.74- 73.0-----
0418 3:42 pm SE 22 25----29.74- 73.0-----
0418 3:36 pm SE 24 27----29.75- 72.5-----
0418 3:30 pm SE 23 26----29.75- 72.5-----
0418 3:24 pmESE 24 28----29.75- 72.3-----
0418 3:18 pm SE 22 27----29.75- 72.9-----
0418 3:12 pmESE 23 26----29.75- 72.5-----
0418 3:06 pmESE 23 27----29.75- 73.0-----
0418 3:00 pmESE 23 27----29.76-0.12 72.5-----
0418 2:54 pmESE 22 25----29.76- 72.7-----
0418 2:48 pmESE 22 26----29.77- 72.7-----
0418 2:42 pmESE 22 25----29.78- 73.4-----
0418 2:36 pmESE 22 26----29.78- 73.0-----
0418 2:30 pmESE 22 27----29.78- 73.2-----
0418 2:24 pmESE 21 25----29.78- 72.9-----
0418 2:18 pmESE 22 26----29.79- 73.4-----
0418 2:12 pmESE 21 25----29.80- 73.0-----
0418 2:06 pmESE 22 26----29.80- 73.6-----
0418 2:00 pmESE 21 25----29.80-0.10 73.6-----
0418 1:54 pmESE 21 25----29.80- 73.6-----
0418 1:48 pm SE 19 22----29.81- 73.8-----
0418 1:42 pm SE 20 23----29.82- 73.2-----
0418 1:36 pm SE 19 22----29.82- 73.8-----
0418 1:30 pmESE 19 22----29.82- 73.4-----
0418 1:24 pmESE 20 23----29.82- 73.2-----
0418 1:18 pmESE 19 23----29.83- 73.6-----
0418 1:12 pmESE 19 22----29.83- 73.0-----
0418 1:06 pmESE 17 20----29.84- 73.6-----
0418 1:00 pmESE 17 19----29.85-0.06 73.6-----
041812:54 pmESE 19 22----29.84- 73.4-----
041812:48 pmESE 18 22----29.84- 73.6-----
041812:42 pmESE 20 23----29.84- 73.0-----
041812:36 pmESE 18 22----29.84- 73.2-----
041812:30 pmESE 17 20----29.85- 73.6-----
041812:24 pmESE 16 18----29.86- 73.2-----
041812:18 pmESE 15 17----29.87- 73.2-----
041812:12 pmESE 14 17----29.88- 73.4-----
041812:06 pmESE 15 17----29.88- 72.9-----
041812:00 pmESE 14 17----29.88-0.01 73.6-----
041811:48 amESE 14 17----29.88- 72.9-----
041811:42 amESE 14 16----29.88- 73.0-----
041811:36 amESE 14 16----29.88- 72.5-----
041811:30 am SE 15 18----29.88- 72.9-----
041811:24 am SE 15 18----29.88- 72.9-----
041811:12 am SE 13 14----29.89- 73.0-----
041811:06 am SE 12 15----29.90- 73.4-----
041811:00 am SE 11 14----29.90- 73.6-----
041810:54 am SE 11 14----29.91- 74.1-----
041810:48 am SE 11 13----29.91- 73.8-----
041810:42 amSSE 12 14----29.91- 73.2-----
041810:36 amSSE 13 14----29.91- 72.9-----
041810:30 amSSE 14 16----29.90- 73.0-----
041810:24 amSSE 14 17----29.90- 73.0-----
041810:18 amSSE 14 16----29.90- 73.0-----
041810:12 amSSE 13 15----29.91- 73.2-----
041810:06 amSSE 13 14----29.91- 73.8-----
041810:00 amSSE 12 15----29.91+0.06 73.0-----
0418 9:54 amSSE 12 14----29.91- 72.7-----
0418 9:48 amSSE 11 13----29.91- 72.9-----
0418 9:42 amSSE 11 13----29.91- 72.7-----
0418 9:36 amSSE 11 12----29.91- 72.7-----
0418 9:24 amSSE 12 13----29.90- 72.3-----
0418 9:18 amSSE 11 15----29.90- 72.5-----
0418 9:12 amSSE 13 15----29.89- 72.5-----
0418 9:06 amSSE 14 15----29.89- 72.3-----
0418 9:00 amSSE 14 17----29.89+0.09 72.1-----
0418 8:54 amSSE 14 17----29.89- 72.1-----
0418 8:48 amSSE 14 16----29.89- 72.0-----
0418 8:42 amSSE 14 16----29.89- 72.0-----
0418 8:36 amSSE 13 15----29.89- 72.5-----
0418 8:30 amSSE 13 16----29.89- 72.5-----
0418 8:24 amSSE 13 15----29.89- 72.1-----
0418 8:18 amSSE 11 13----29.89- 72.3-----
0418 8:12 amSSE 11 13----29.88- 72.3-----
0418 8:06 am S 11 13----29.88- 72.3-----
0418 7:54 am S 13 15----29.88- 72.1-----
0418 7:48 am S 13 16----29.87- 72.0-----
0418 7:42 am S 14 16----29.87- 72.0-----
0418 7:30 am S 16 18----29.86- 71.8-----
0418 7:24 am S 16 19----29.86- 71.6-----
0418 7:12 am S 17 18----29.85- 71.6-----
0418 7:06 am S 17 20----29.85- 71.6-----
0418 7:00 am S 18 20----29.85+0.00 71.4-----
0418 6:54 am S 18 20----29.84- 71.6-----

Description of Measurements

Links which are specific to this station are listed below:

Real Time Data in tabular form for the last forty-five days.

Historical Data & Climatic Summaries for quality controlled data for the current month, previous months, and previous years.